Temp
37 35 33 32 33 35 37 36 36 38 38 37 34 30 28 27 27 31 33 32 32 30 29 30 30 29 28 29 30 29 29 29 28 28 28 28 27 27 26 26 26 26 26 25 25 25 25 25 25 25 24 24 24 23 23 22 22 22 21 22 23 23 23 23 23 23 23 23 23 22 21 22 22 22 22 22 22 22 22 22 22 22 22 21 21 21
36 32 32 35 36 36 37 37 38 39 39 38 34 29 28 28 29 33 33 31 32 31 29 29 30 28 29 29 29 29 29 29 29 29 28 28 27 26 26 26 26 26 25 25 25 24 24 23 23 24 24 23 23 23 22 22 22 22 22 22 23 22 22 23 23 23 22 22 22 22 21 22 22 22 22 22 22 22 22 22 22 22 22 22 21 21
33 32 34 36 36 36 37 38 38 39 39 37 35 30 27 29 31 32 33 31 32 32 28 29 29 28 29 29 28 29 30 29 29 29 28 27 27 27 27 26 25 25 25 25 25 24 23 21 22 25 25 24 23 23 23 23 23 22 22 23 22 22 22 23 23 23 22 22 22 22 22 22 22 22 22 22 22 22 23 22 22 23 23 22 22 21
28 32 36 36 36 38 37 38 38 38 37 36 35 29 26 31 30 28 30 31 32 31 29 28 28 28 29 29 28 28 29 29 28 28 28 27 27 27 27 26 26 25 25 25 24 23 21 20 21 24 24 24 24 24 24 23 23 22 22 22 22 22 23 23 23 23 22 22 22 22 22 22 22 22 22 22 22 22 22 23 23 22 22 23 22 22
30 34 37 36 37 38 37 37 39 36 34 35 36 32 29 32 31 29 31 31 30 29 29 29 25 25 28 28 28 28 27 28 27 27 27 27 27 27 26 26 26 26 25 25 24 22 21 20 20 21 23 24 23 24 24 24 23 22 22 22 22 22 23 23 23 23 22 22 22 22 22 22 22 22 22 22 22 22 23 23 23 22 22 23 23 22
34 36 37 36 37 37 36 37 38 36 31 32 36 36 34 34 34 33 32 31 26 24 28 29 23 22 26 27 28 27 27 27 27 27 27 26 26 25 25 25 25 25 24 24 23 21 20 20 20 20 22 24 23 23 24 24 23 23 22 22 22 22 23 23 23 23 23 22 22 22 22 22 22 22 21 21 22 22 23 23 22 22 23 23 23 22
36 37 37 37 36 37 37 36 37 37 31 28 34 38 37 38 35 32 31 29 23 23 29 30 24 22 24 26 28 27 26 27 26 27 26 26 25 24 24 23 23 23 22 22 21 21 21 20 20 20 21 24 24 23 23 23 24 23 22 21 22 23 23 23 23 23 23 23 23 22 22 22 22 22 21 21 22 22 23 23 22 23 23 23 23 23
37 37 36 37 37 36 35 34 37 38 31 29 36 39 38 39 36 33 32 28 26 26 28 30 27 22 22 25 27 27 26 26 26 26 26 25 24 23 22 22 22 22 22 22 21 21 21 20 20 20 20 22 24 24 24 23 23 24 23 22 22 23 23 23 23 23 23 23 23 23 23 23 22 22 22 22 22 23 23 23 23 23 23 23 23 23
37 36 36 37 36 34 34 35 38 38 34 34 38 38 37 38 37 36 34 29 29 27 23 26 27 23 21 24 27 27 26 26 26 26 25 24 23 22 22 22 22 21 21 21 21 21 20 20 20 20 20 21 23 24 24 23 23 23 23 23 22 23 23 23 23 23 23 23 23 23 23 23 23 23 23 23 23 23 23 23 23 22 22 22 22 22
36 36 37 37 35 35 36 38 38 38 37 37 38 38 38 37 36 37 34 30 28 25 22 24 26 23 21 23 25 26 26 26 26 26 25 24 23 22 22 22 22 21 21 21 20 20 20 20 20 20 20 21 21 22 23 23 23 24 24 23 23 23 23 23 23 23 23 23 23 23 23 23 23 23 23 23 23 23 23 23 23 23 22 22 22 21
36 36 37 37 37 37 37 38 38 38 38 38 38 37 36 36 36 35 32 29 25 23 23 24 25 24 22 22 24 26 27 27 26 25 24 23 22 22 22 22 22 21 21 20 20 20 20 20 20 20 20 21 21 21 22 22 23 23 23 23 22 23 23 23 23 23 23 23 23 23 23 23 23 23 23 23 23 23 23 22 23 23 23 22 22 22
36 35 36 37 38 38 38 38 38 38 38 38 38 35 31 30 31 29 27 27 23 22 23 25 26 25 22 23 25 27 29 28 26 25 23 22 22 22 22 22 21 21 21 20 20 20 20 20 20 20 20 21 22 22 23 22 23 23 22 22 23 23 23 23 23 23 23 23 23 23 23 23 23 22 22 22 22 22 22 22 22 23 23 22 22 22
34 36 36 36 37 38 37 36 36 37 38 38 36 31 25 24 25 24 23 24 22 22 24 26 26 24 22 24 26 28 29 28 27 26 23 22 22 22 22 21 21 21 21 21 21 20 20 20 20 20 21 22 23 23 23 23 23 23 23 23 23 23 23 23 23 23 23 23 23 23 23 22 22 22 22 22 22 22 22 22 22 22 22 22 22 22
29 34 36 36 36 38 38 34 31 33 36 36 32 27 24 23 23 23 23 23 22 22 24 26 26 23 22 25 25 25 26 26 26 25 23 22 22 22 22 21 21 21 21 21 20 21 20 20 21 21 22 22 23 23 23 23 23 23 23 23 23 23 23 23 23 23 23 23 23 23 22 22 22 22 22 22 22 22 22 22 22 22 22 22 22 22
24 27 33 35 35 37 39 36 34 35 36 36 36 32 26 24 23 23 23 23 22 22 23 25 24 22 22 24 24 24 23 23 23 23 22 21 21 21 21 21 21 21 21 20 20 20 20 21 21 21 22 23 23 24 23 23 24 23 23 23 24 24 23 23 23 23 23 22 22 22 22 22 22 22 22 22 22 22 22 22 22 22 22 21 21 22
24 24 33 37 36 38 38 37 38 37 34 34 37 33 27 28 27 24 23 24 23 22 22 22 22 23 24 25 25 24 23 23 22 22 22 21 21 21 21 21 21 21 21 21 21 21 21 21 21 21 23 23 24 24 24 24 24 24 24 24 23 23 23 23 23 23 23 22 22 22 22 22 22 22 22 21 21 21 21 21 21 21 21 21 21 21
24 25 35 37 36 38 38 37 39 36 32 33 32 29 31 35 32 24 22 24 23 21 22 21 22 23 25 25 25 24 23 23 22 21 22 21 21 21 21 21 21 21 21 21 21 21 21 21 22 22 23 24 24 24 24 24 24 24 24 24 23 23 23 23 23 23 23 22 22 22 22 22 22 22 21 21 21 21 21 21 21 21 21 21 21 21
27 26 34 37 35 37 38 38 39 38 37 33 29 31 35 35 33 28 23 23 22 21 21 21 21 22 22 23 25 25 24 23 22 21 21 22 21 21 21 21 21 21 21 22 21 21 21 22 22 23 24 24 24 24 24 24 24 24 24 24 23 23 23 23 23 23 23 22 22 22 22 22 21 21 21 21 21 21 20 20 20 20 20 20 20 20
32 25 30 38 36 36 39 37 35 37 39 36 33 36 35 28 27 27 24 23 22 21 21 21 21 21 21 22 24 25 25 23 22 22 21 21 21 21 21 21 22 22 22 22 22 22 22 22 22 23 24 24 24 24 24 24 24 24 24 23 23 23 22 22 22 23 22 22 22 21 21 21 21 21 21 21 20 20 20 20 20 20 20 20 20 20
35 27 27 36 38 37 38 35 30 32 37 37 37 38 35 29 26 25 25 24 22 21 21 21 21 21 22 23 24 25 25 24 23 22 21 21 21 21 21 22 22 22 23 23 23 22 22 22 23 23 24 24 23 23 24 24 24 24 23 23 22 22 22 22 22 22 22 21 21 21 21 21 21 20 20 20 20 20 20 19 19 20 20 20 20 20
36 29 25 32 38 35 33 33 32 32 34 34 32 31 31 31 29 27 26 25 23 22 21 21 21 21 23 25 25 25 25 24 23 22 21 21 21 21 21 21 22 22 23 23 23 22 22 22 22 22 23 23 23 23 23 24 24 23 23 23 22 22 22 22 22 22 21 21 21 21 21 20 20 20 20 20 19 19 19 19 19 19 19 19 19 19
34 31 26 27 30 29 31 37 38 37 37 35 32 30 30 30 27 25 24 24 24 22 21 22 21 21 23 24 24 23 24 23 22 21 21 21 21 21 21 22 21 22 22 22 22 21 21 21 21 21 22 22 23 23 23 23 23 23 23 22 22 22 21 21 21 21 21 21 20 20 20 20 20 20 19 19 19 19 19 19 19 19 19 19 19 19
36 34 28 25 28 31 34 37 36 36 38 37 35 34 34 32 27 23 22 23 23 22 22 22 21 22 24 24 23 22 22 22 21 21 21 20 21 21 21 21 21 21 21 21 20 20 20 20 20 21 21 22 23 23 23 23 23 22 22 22 22 21 21 21 21 20 20 20 20 19 19 19 19 19 19 18 18 18 18 18 18 18 18 18 18 19
36 34 28 25 30 34 36 37 37 37 38 35 33 34 33 31 29 27 25 25 23 22 22 22 21 22 24 24 23 22 22 22 21 21 21 21 21 21 21 21 21 21 20 20 20 20 20 20 21 21 21 21 22 23 22 22 22 22 22 21 21 21 21 21 20 20 20 19 19 19 19 18 18 18 18 18 17 18 18 17 18 18 18 18 18 18
33 31 28 24 25 27 29 31 32 34 35 34 32 32 32 31 31 29 27 26 24 22 22 22 21 22 23 24 23 22 22 22 21 21 21 21 22 21 21 21 21 20 20 21 21 20 20 20 20 20 21 21 22 22 22 22 22 22 21 21 21 20 20 20 20 19 19 19 18 18 18 18 17 17 17 17 17 17 17 17 17 17 17 17 17 18
34 32 30 24 22 23 24 24 26 29 32 32 31 32 32 31 31 29 25 24 22 22 22 22 22 22 23 24 23 22 22 21 21 22 22 22 22 21 21 21 20 21 21 21 22 21 20 20 20 20 21 21 22 22 22 21 21 21 21 21 20 20 20 19 19 19 18 18 18 17 17 17 17 17 16 16 16 16 16 17 17 17 17 17 17 17
36 34 32 28 25 25 25 27 31 32 30 28 29 30 30 30 31 29 24 23 22 22 22 22 23 22 22 23 23 22 22 21 21 22 21 22 22 21 21 21 21 21 21 21 22 21 20 20 20 20 21 21 21 21 21 21 21 20 20 20 20 19 19 19 18 18 18 17 17 17 16 16 16 16 16 16 16 16 16 16 16 16 17 17 17 17
35 31 32 32 29 30 31 32 34 33 29 27 28 28 29 30 30 28 25 24 24 23 22 22 23 22 22 23 23 22 22 22 21 22 22 21 21 21 21 21 21 21 21 21 21 21 21 20 20 20 21 21 21 21 21 20 20 20 20 19 19 19 18 18 18 17 17 17 16 16 16 16 16 16 16 16 16 16 16 16 16 16 16 16 16 16
35 30 32 33 31 33 34 33 33 32 30 30 29 28 29 29 29 27 25 25 26 24 23 23 23 22 23 23 23 23 23 22 21 22 21 21 21 21 21 21 21 21 21 22 21 21 21 20 20 20 20 20 20 20 20 20 20 19 19 19 18 18 18 18 17 17 17 16 16 16 16 16 16 16 16 16 16 16 16 16 16 16 16 16 16 16
34 30 33 34 31 31 33 32 32 32 29 29 29 29 29 29 29 28 26 26 27 26 25 24 23 23 23 23 23 23 22 22 21 21 21 21 21 21 22 22 21 21 22 22 21 21 21 20 20 20 20 20 19 19 19 19 19 19 18 18 18 18 17 17 17 17 16 16 16 16 16 16 16 16 16 16 16 16 16 15 16 15 15 15 16 16
33 30 34 35 29 28 30 31 31 31 29 27 28 29 29 28 27 27 26 26 25 24 24 24 22 22 22 22 22 22 21 21 21 21 21 21 21 21 22 22 22 22 22 21 21 21 20 19 19 19 19 18 19 19 19 19 19 18 18 18 18 17 17 17 17 16 16 16 16 16 16 16 16 16 16 16 16 16 15 15 15 15 15 15 15 15
34 32 34 33 26 25 29 30 29 30 29 26 26 27 28 27 26 26 26 26 25 23 23 23 22 22 22 22 22 22 22 22 22 21 21 21 21 22 22 22 22 22 22 21 21 21 20 19 18 18 18 18 19 19 19 18 18 18 18 17 17 17 17 17 16 16 16 16 16 16 16 16 16 16 16 16 16 15 15 15 15 15 15 15 15 15
36 34 32 30 25 24 28 29 29 28 26 23 25 27 27 27 27 27 27 26 26 24 23 23 23 23 22 22 22 22 22 22 22 22 22 21 21 22 22 22 22 22 22 21 20 20 19 18 18 18 18 18 19 19 18 18 18 18 17 17 17 17 17 16 16 16 16 16 16 16 16 16 16 16 16 16 15 15 15 15 15 15 15 15 15 15
35 34 32 30 25 23 27 30 28 25 22 22 27 29 28 27 27 26 26 26 26 25 25 24 24 23 22 22 22 22 23 23 23 23 22 22 22 22 22 22 22 22 21 20 20 19 18 18 18 18 18 18 18 18 18 18 18 17 17 17 17 17 17 16 16 16 16 16 16 16 16 16 16 16 16 15 15 15 15 15 14 14 14 14 14 14
35 34 32 31 27 24 27 28 24 21 22 25 28 28 28 27 26 25 25 25 25 25 24 24 23 23 22 23 23 23 24 24 24 23 23 22 22 22 22 22 22 21 21 20 19 18 18 18 19 18 18 18 18 18 18 18 18 17 17 17 17 17 16 16 16 16 16 16 16 16 16 16 16 16 15 15 15 15 14 14 14 14 14 14 14 13
36 34 32 30 28 25 25 24 22 22 25 27 27 27 27 26 26 25 24 24 25 24 24 24 23 23 23 23 24 23 24 24 24 23 23 23 23 22 22 22 21 21 20 20 19 18 19 19 19 18 18 18 18 18 17 17 17 17 16 16 16 16 16 16 16 16 16 16 16 16 16 16 16 16 15 15 14 14 14 14 14 14 13 13 13 13
36 35 32 28 26 25 22 21 23 23 24 25 26 27 28 27 26 25 23 23 24 24 24 23 23 23 24 24 24 24 24 23 22 22 23 23 23 23 22 22 21 21 20 20 19 19 19 19 18 18 18 18 18 17 17 17 17 17 16 16 16 16 16 16 16 16 16 16 16 16 16 16 16 15 15 14 14 14 14 14 13 13 13 13 13 13
34 34 33 28 25 24 22 21 23 22 21 24 27 28 29 27 27 26 24 23 24 24 24 24 24 24 24 24 24 25 24 23 21 21 22 22 22 22 21 21 21 21 20 20 20 19 19 18 18 18 17 17 17 17 17 17 17 16 16 16 16 16 16 16 16 16 16 16 16 16 16 16 16 15 15 14 14 14 13 13 13 13 13 12 12 12
31 32 33 29 24 24 23 21 22 21 22 25 27 28 28 26 27 27 24 22 23 24 24 24 24 24 25 25 24 25 24 22 21 21 21 21 21 21 21 20 20 20 20 20 19 19 18 18 18 17 17 17 17 17 17 17 17 16 16 16 16 16 16 16 16 16 16 16 16 16 16 16 16 15 15 14 14 13 13 13 13 13 13 12 12 12
30 30 30 27 23 23 23 21 22 22 24 26 27 27 27 27 28 26 22 21 24 25 24 24 24 24 24 24 24 25 24 22 21 21 21 21 21 20 20 20 20 19 19 19 19 18 18 18 17 17 17 17 17 17 17 16 16 16 16 16 16 16 16 16 16 16 16 16 16 16 16 16 16 15 14 14 14 14 14 13 13 13 13 12 12 12
28 28 27 25 22 22 22 21 21 23 25 27 27 27 27 28 27 24 21 23 25 24 23 24 24 24 24 24 24 24 23 22 21 21 21 21 20 20 20 20 19 19 19 19 19 18 18 17 17 17 17 17 17 17 16 16 16 16 16 16 16 16 16 16 16 16 16 16 16 16 16 16 15 15 14 14 14 14 14 13 13 13 13 13 12 12
25 25 25 24 23 23 23 22 21 23 25 26 26 27 27 27 24 22 23 24 24 23 23 24 24 24 24 24 23 22 21 21 21 20 20 20 20 19 19 19 19 19 19 19 19 18 18 17 17 17 17 17 17 17 16 16 16 17 16 16 16 16 16 16 16 16 16 16 16 16 16 16 15 15 14 14 14 14 14 14 13 13 13 13 13 12
25 24 23 23 24 23 22 21 21 22 24 25 26 27 26 24 24 23 24 24 23 23 23 23 23 23 22 22 21 20 20 20 20 20 20 19 19 19 18 18 19 18 18 18 18 18 18 18 17 17 17 17 17 17 17 16 17 17 16 16 16 16 16 16 16 16 16 16 16 16 16 15 15 15 14 14 14 14 14 14 13 13 13 13 13 12
26 25 23 23 24 23 21 21 22 22 23 24 25 25 24 23 24 24 23 23 23 23 22 22 22 22 22 21 20 19 19 19 19 19 19 19 19 18 18 18 18 19 19 18 18 18 18 18 17 17 17 17 17 17 17 16 17 17 16 16 16 16 16 16 16 16 16 16 16 16 15 15 15 15 14 14 14 14 14 14 13 13 13 13 12 12
26 26 25 24 24 23 22 22 23 23 23 23 23 23 23 23 23 23 23 23 23 22 22 22 22 21 21 21 20 19 19 19 19 19 19 19 18 18 18 18 19 19 19 19 18 18 18 18 17 17 17 17 17 17 17 17 16 16 16 16 16 16 16 16 16 16 15 15 15 15 15 15 15 15 15 14 14 14 14 14 13 13 13 13 12 12
26 27 26 24 24 24 24 23 23 23 23 23 23 23 23 23 23 23 23 22 22 22 22 22 22 22 21 21 20 20 19 19 19 19 19 19 18 18 18 18 18 19 19 18 18 18 18 17 17 17 17 17 17 17 17 17 17 17 16 16 16 16 16 16 16 15 15 15 15 15 14 14 15 15 14 14 14 14 14 14 13 13 13 13 12 11
27 27 26 25 24 23 23 23 23 23 23 23 23 23 23 23 23 23 23 22 22 22 23 22 22 21 21 20 20 19 19 20 20 19 19 19 18 18 18 18 18 18 18 18 18 18 18 17 17 17 17 17 17 17 17 17 17 17 16 16 16 16 16 16 15 15 15 15 15 15 14 15 15 15 14 14 14 14 14 14 14 13 13 13 12 11
27 27 26 24 24 23 23 23 23 23 23 23 23 23 23 23 23 23 22 22 22 22 22 22 22 21 21 20 20 20 19 20 19 19 19 18 18 18 19 18 18 18 18 18 18 18 18 17 17 17 17 17 17 17 17 17 17 17 16 16 16 16 16 15 15 15 15 15 15 14 14 14 14 15 15 15 14 14 14 14 14 13 13 13 13 12
27 26 25 24 23 22 22 23 23 23 22 23 23 23 23 23 23 23 22 22 22 22 22 21 21 21 20 19 19 19 20 19 19 19 19 18 17 19 20 19 19 19 18 18 18 18 18 17 17 17 17 17 17 17 17 17 17 16 16 16 16 16 15 15 15 15 15 15 15 15 14 14 14 14 14 14 14 14 14 14 14 14 13 13 13 12
26 25 24 23 22 22 22 23 23 23 22 22 23 23 22 22 23 23 23 23 23 22 22 21 20 20 20 20 19 20 20 20 19 19 18 18 18 19 20 19 18 18 18 18 18 18 18 17 17 17 17 17 17 17 17 17 16 16 16 16 16 16 15 15 15 15 15 15 15 15 15 15 14 14 14 14 14 14 14 14 14 14 14 13 13 12
25 25 24 24 23 23 23 23 23 23 22 21 22 22 22 22 23 23 22 22 22 21 20 20 20 20 20 20 20 20 19 19 19 19 18 18 19 20 20 19 18 18 18 18 18 18 17 17 17 17 17 17 17 17 17 17 16 16 16 16 15 15 15 15 15 15 15 14 14 15 15 15 15 14 14 14 14 14 14 14 14 14 14 13 13 13
Height
764 782 791 791 790 783 776 773 772 769 766 771 783 796 799 802 801 792 789 787 787 803 812 808 811 817 817 812 808 808 809 810 812 812 811 811 812 813 814 815 815 814 812 810 812 815 816 816 817 818 820 823 823 822 821 821 820 821 821 820 819 818 818 817 816 815 815 814 814 813 812 810 809 809 807 806 805 804 804 804 803 802 802 802 802 802
770 792 793 780 777 774 769 767 763 762 764 769 780 795 799 798 797 787 788 791 787 800 813 810 814 820 817 815 812 810 812 814 814 814 815 814 815 815 816 818 818 817 815 814 815 817 819 820 819 817 818 823 824 824 824 823 822 822 822 821 821 819 818 817 816 816 815 815 814 813 812 810 810 809 807 806 804 804 804 803 802 801 801 801 801 802
789 793 781 770 768 768 766 763 762 763 767 773 778 793 802 796 793 790 789 793 789 798 816 815 818 823 820 817 816 813 813 814 812 812 814 815 816 817 817 818 819 820 821 819 818 820 822 821 816 810 810 815 818 820 822 823 822 823 822 822 822 821 820 819 818 817 816 816 815 814 813 811 810 809 808 807 805 804 803 802 801 800 800 801 801 802
802 787 770 766 764 766 768 764 764 767 772 777 779 791 799 790 792 799 797 797 793 798 813 817 821 826 823 820 819 816 813 813 814 813 813 814 816 817 816 816 818 819 821 821 821 823 823 821 816 810 808 810 812 814 817 820 821 822 822 822 822 821 821 820 820 819 818 817 816 815 813 812 811 810 808 807 806 804 803 802 800 800 801 801 802 802
796 776 762 764 764 766 772 769 766 773 780 780 776 784 792 787 786 792 794 797 801 806 808 814 831 835 827 827 826 819 816 817 818 817 818 818 816 815 814 814 814 814 816 818 820 822 823 822 820 816 812 811 812 812 812 816 819 820 821 822 822 822 821 821 820 820 820 819 817 816 815 814 812 811 810 808 806 804 803 801 801 802 801 801 801 801
785 766 758 766 768 767 774 775 769 774 785 784 776 775 780 780 780 786 790 798 817 828 812 809 841 851 834 830 831 825 824 825 823 822 823 821 817 815 815 813 812 812 812 814 817 819 821 822 821 819 815 812 815 814 812 813 816 819 821 822 823 823 822 822 821 821 821 820 819 818 816 815 814 813 811 809 807 805 803 803 804 804 801 800 801 801
775 761 758 768 771 769 774 775 767 768 786 791 776 765 767 769 776 787 792 799 820 829 809 801 831 855 844 833 832 830 831 831 827 826 825 821 819 817 817 816 814 815 814 814 816 817 820 823 822 820 815 812 814 817 815 814 814 816 820 822 823 823 823 823 823 823 823 821 820 819 818 817 816 814 813 811 809 806 804 805 806 804 803 802 801 800
771 766 767 768 771 774 778 777 765 763 783 789 767 759 764 764 772 785 789 797 805 807 810 807 817 846 854 841 833 832 834 836 832 829 826 821 820 819 819 818 817 817 817 816 818 818 819 822 822 821 817 812 813 816 817 817 815 814 818 823 825 825 824 824 824 825 824 823 822 821 820 819 817 816 814 812 810 807 805 806 807 806 805 804 802 800
768 773 773 769 775 780 777 772 762 760 776 776 758 758 762 760 768 774 780 791 792 804 829 823 811 840 859 843 832 832 835 840 836 829 826 821 819 819 819 819 818 818 817 816 817 818 819 821 823 824 821 815 815 816 816 817 817 814 817 824 828 828 827 826 826 826 825 824 823 822 821 820 819 818 816 814 811 808 806 806 808 809 808 807 804 802
768 766 763 766 777 777 769 762 756 761 770 762 753 757 758 761 768 769 777 785 787 809 835 825 813 838 859 847 837 837 836 838 836 829 825 823 821 820 818 818 819 819 818 816 816 816 819 821 823 826 823 819 820 819 817 819 817 813 816 823 828 829 829 828 828 827 826 826 825 824 823 822 821 819 818 816 813 811 810 809 810 811 810 809 807 805
764 755 754 761 766 762 758 756 753 756 757 753 756 764 766 767 768 772 780 782 800 828 832 819 813 826 848 849 839 835 828 827 831 831 828 825 822 821 819 820 820 819 819 817 816 816 819 822 824 825 823 821 823 822 822 822 820 819 823 828 831 831 831 831 830 829 828 827 826 825 825 824 823 822 820 818 816 815 814 813 812 812 812 811 809 809
766 764 762 755 750 750 755 757 753 750 749 754 764 774 783 785 780 784 787 791 823 846 831 817 812 819 842 847 834 826 819 817 822 825 827 827 825 823 822 822 821 821 821 819 818 819 820 822 824 825 823 822 824 824 825 826 827 828 832 835 836 835 835 834 833 831 830 829 828 827 826 825 824 823 822 820 819 817 815 814 814 812 812 811 810 809
775 770 763 754 747 746 758 767 762 755 752 760 771 781 800 810 808 809 810 817 837 840 825 817 815 827 843 840 830 824 816 814 816 817 823 826 826 825 824 824 822 822 822 821 820 821 821 822 824 825 823 823 824 825 827 829 830 832 834 836 837 837 837 836 834 832 831 830 829 829 827 826 825 824 823 821 820 818 817 816 815 813 812 811 810 809
790 775 761 762 757 744 753 772 776 770 763 767 776 787 806 820 830 834 828 835 845 834 822 816 820 838 846 835 831 829 820 816 816 818 823 825 825 826 824 823 823 822 823 824 824 823 823 824 825 825 824 824 825 826 828 830 831 832 834 835 836 836 836 836 834 832 831 830 830 829 828 827 826 824 823 822 821 819 818 817 816 814 813 812 810 809
807 798 771 766 764 749 749 759 763 764 765 768 767 777 797 806 820 831 826 832 842 837 830 827 836 852 854 843 836 830 825 822 822 824 826 827 827 826 825 824 824 825 826 827 827 826 826 827 827 826 825 825 825 826 828 830 831 832 833 834 835 835 835 834 833 832 830 830 829 829 829 827 826 825 824 823 821 820 819 818 816 815 813 812 810 809
805 802 766 752 752 747 750 746 742 756 771 770 762 775 790 786 794 811 815 816 826 842 851 848 850 850 844 840 833 829 830 828 829 830 829 830 829 827 828 827 826 828 827 827 828 827 826 826 826 826 826 826 825 826 828 829 831 831 832 833 833 834 834 833 833 832 830 830 829 828 828 827 826 825 824 823 822 821 819 818 817 815 814 812 810 809
801 793 759 750 750 741 743 742 737 754 771 771 772 781 776 764 774 800 817 816 822 850 864 856 855 849 839 837 832 831 835 833 834 835 833 833 832 831 832 830 829 829 827 827 827 826 825 825 826 826 826 826 825 827 828 829 830 831 831 831 832 833 833 833 832 831 830 829 829 828 828 827 826 825 824 823 822 821 820 818 817 815 814 812 810 809
789 791 763 753 758 741 730 737 737 738 750 767 778 772 761 762 770 784 811 826 837 863 868 857 861 860 853 849 837 833 839 840 839 838 836 835 833 834 833 830 829 828 827 827 826 826 826 825 826 826 826 826 826 828 829 830 830 830 831 831 832 833 833 833 832 831 830 829 828 828 827 827 826 825 824 823 822 821 820 818 817 815 813 812 810 808
775 793 772 748 754 745 728 742 755 744 738 752 761 753 760 784 790 789 805 823 845 872 872 861 862 860 859 856 843 837 840 841 841 838 838 837 834 835 833 829 828 826 826 827 826 826 826 826 827 827 827 828 829 830 830 830 831 830 831 831 832 833 833 833 832 831 830 829 828 828 827 827 826 824 823 822 821 820 819 818 817 815 814 812 810 808
765 791 785 753 744 744 740 754 772 766 749 745 750 752 760 778 789 795 802 812 838 868 871 864 863 860 855 849 842 839 837 836 839 839 838 837 834 834 832 830 829 827 827 826 826 827 827 828 828 828 829 830 830 831 831 831 831 830 831 832 832 833 832 832 832 831 830 829 828 828 827 827 825 824 823 822 821 820 818 817 816 815 813 811 810 808
764 784 791 767 747 752 761 763 766 767 761 759 765 769 770 773 779 791 801 804 821 850 863 864 867 861 847 838 837 837 833 833 836 836 837 836 834 833 832 830 830 827 827 826 826 828 828 829 830 830 831 831 831 831 831 831 831 831 832 833 833 833 832 832 831 831 830 829 828 828 827 827 825 824 823 821 820 819 818 817 815 814 813 811 809 808
767 778 785 778 768 769 767 754 747 750 753 759 768 772 775 778 784 805 824 815 810 832 849 854 861 859 842 834 835 835 832 832 833 835 838 836 835 834 831 830 829 827 827 827 827 829 830 830 831 832 832 832 831 831 831 832 832 832 833 833 833 833 832 832 832 831 831 830 829 829 827 827 825 823 822 821 820 819 818 817 815 814 812 810 809 807
752 766 778 780 775 771 761 748 744 744 742 750 761 765 770 775 783 808 831 824 818 831 837 840 854 854 838 831 833 834 832 832 833 835 837 837 836 834 832 830 829 828 828 828 828 829 830 830 831 832 833 833 832 831 832 833 833 834 834 834 834 833 833 833 832 832 831 831 830 829 828 827 825 824 822 821 820 819 818 816 815 813 811 809 808 806
747 764 778 780 772 762 754 747 743 741 742 756 767 766 771 779 782 794 807 811 821 834 833 839 854 851 837 831 831 833 833 832 834 835 835 836 834 833 833 831 830 830 829 828 828 829 830 831 831 834 836 834 833 832 833 834 834 835 835 834 834 834 833 833 833 832 832 831 830 829 828 827 825 824 822 821 820 819 818 816 814 812 811 809 807 805
757 771 779 789 792 785 777 771 763 755 754 767 777 774 775 781 784 791 797 804 822 834 831 838 850 848 837 831 830 833 833 834 835 834 833 834 833 833 833 833 832 832 831 830 829 831 832 833 834 837 837 834 833 834 834 835 835 835 835 835 835 834 834 834 833 833 832 831 830 829 828 827 825 824 823 822 821 819 817 816 814 812 810 808 807 805
757 770 774 789 807 809 806 798 785 773 767 773 780 778 779 782 783 792 802 812 828 836 830 830 840 844 839 833 833 835 835 836 836 834 833 832 833 834 834 833 834 833 833 832 832 833 834 835 837 838 837 835 835 835 836 836 837 837 836 836 836 836 835 835 834 833 832 831 830 829 829 828 827 825 824 822 820 819 817 815 814 812 810 808 806 804
755 766 768 778 790 792 791 783 771 769 777 785 787 783 785 785 783 791 805 817 827 833 834 832 832 842 845 838 836 836 835 838 837 834 834 834 834 834 833 833 834 833 833 833 833 834 834 836 838 837 836 836 836 836 837 837 837 837 837 837 837 836 835 835 834 833 833 832 831 831 830 829 827 826 824 822 820 819 817 815 814 812 810 808 806 804
759 770 769 772 776 774 773 769 764 770 781 788 789 790 791 789 787 791 802 812 818 825 835 834 830 839 843 837 835 835 833 835 836 834 834 835 834 834 833 833 834 834 834 833 833 834 835 836 836 836 836 836 836 837 837 837 838 837 838 837 837 837 836 836 835 834 834 833 832 832 831 829 828 826 824 823 820 819 817 815 814 812 810 808 806 804
760 773 768 768 772 771 772 771 769 775 784 788 790 793 793 791 791 795 802 809 810 811 821 828 831 836 836 832 832 832 829 832 834 832 832 833 833 833 833 834 834 834 834 833 834 833 834 835 835 835 836 836 836 837 837 838 838 838 838 838 837 837 837 836 836 835 835 834 833 832 831 830 828 826 824 823 821 819 817 815 814 812 810 808 806 804
755 771 767 766 771 773 776 777 774 779 788 792 793 793 792 792 792 796 804 809 807 808 814 823 832 835 832 830 829 827 827 830 830 830 831 832 833 832 833 834 834 834 833 833 833 833 833 835 835 836 837 837 837 838 838 838 838 838 839 838 838 838 837 837 836 835 835 834 834 833 831 830 828 827 825 823 821 820 818 816 814 812 810 808 806 805
753 769 766 762 772 781 783 781 780 784 791 796 799 796 793 796 799 803 809 811 814 821 823 825 835 838 831 827 828 827 828 829 830 831 831 831 832 832 832 833 833 833 833 833 833 834 834 835 836 837 837 838 839 839 839 839 839 839 839 839 839 838 837 837 836 836 835 834 834 833 831 830 828 827 825 824 822 821 819 817 814 812 811 809 807 806
753 766 765 764 781 791 786 785 788 786 789 799 805 804 801 803 807 809 810 811 815 825 831 832 837 837 830 827 828 829 828 829 831 831 831 831 831 831 831 832 833 833 833 833 834 834 835 836 837 838 838 839 840 840 840 840 839 840 839 839 839 838 838 837 836 836 835 834 833 832 831 830 828 827 825 824 822 821 819 817 815 813 811 809 808 807
753 763 766 772 788 792 787 787 786 786 801 814 811 805 805 805 806 808 810 810 811 818 826 829 828 826 826 827 829 830 829 829 829 828 829 830 829 830 830 830 831 832 832 833 834 835 836 837 838 839 839 840 840 840 840 840 839 840 839 839 839 838 837 837 836 835 835 833 833 831 830 829 828 826 825 823 822 821 819 817 815 813 812 810 809 808
756 761 768 774 783 791 787 778 783 805 829 828 807 796 799 803 806 812 816 815 813 813 816 819 820 821 824 826 828 829 828 825 825 824 824 825 826 828 829 829 830 831 831 833 834 835 837 838 838 839 839 840 840 840 840 840 840 840 839 839 839 838 837 837 836 835 834 833 832 831 830 829 827 826 825 823 822 820 818 817 816 814 813 811 810 809
757 761 768 773 780 789 783 778 803 836 838 816 801 796 796 799 804 812 818 817 814 815 816 818 821 822 822 823 823 823 823 821 821 822 822 823 824 826 828 830 830 831 833 834 835 836 837 838 838 839 839 840 840 839 839 840 839 840 839 839 838 838 837 837 836 835 834 833 832 830 829 828 827 826 824 823 822 820 819 818 816 815 814 812 811 810
755 761 767 773 781 790 794 800 823 839 824 808 808 805 801 804 807 814 826 826 818 817 819 820 823 822 821 822 820 820 821 820 821 822 822 822 823 824 827 830 831 832 833 834 835 836 837 837 838 839 839 839 839 839 839 840 840 840 840 839 839 838 837 837 836 835 834 832 831 830 829 828 827 825 824 823 822 820 819 819 817 816 815 814 812 811
748 759 767 777 787 798 812 820 822 825 825 821 816 806 801 806 807 811 828 833 821 817 820 821 823 823 820 820 820 820 820 823 829 829 823 820 822 824 826 829 830 832 833 833 835 836 837 838 838 839 839 839 839 840 840 841 841 840 840 840 839 838 838 837 836 835 834 832 831 830 829 828 827 826 825 824 822 821 820 819 818 817 816 814 813 812
745 754 762 777 793 801 815 827 828 836 840 826 811 800 792 796 798 800 820 834 824 816 819 819 821 822 820 820 821 819 821 830 840 838 828 823 823 824 827 830 831 832 834 834 836 836 837 839 839 840 840 840 841 842 841 842 842 841 841 840 839 839 838 837 836 835 834 832 831 830 829 828 827 826 825 824 823 822 821 820 819 818 816 815 814 812
755 760 760 774 795 801 810 827 835 839 836 819 807 800 792 794 795 798 822 841 828 816 818 819 819 821 819 820 820 819 825 838 846 840 832 828 827 827 830 832 833 835 836 836 836 837 838 840 840 841 842 841 842 843 842 842 842 842 841 841 840 840 838 837 836 835 834 833 831 830 829 828 827 826 825 825 824 823 822 820 820 818 817 816 814 813
770 773 773 785 802 804 810 825 830 827 822 811 803 800 796 792 792 806 836 844 824 814 818 817 818 820 819 819 821 821 827 837 841 838 832 829 830 831 833 834 836 837 837 837 838 839 840 841 842 842 842 843 843 843 843 843 842 842 842 841 841 840 839 838 837 835 834 833 831 830 829 828 827 827 826 825 824 823 823 821 820 819 817 816 815 814
782 784 787 797 808 809 813 825 829 822 813 805 800 797 793 792 802 823 838 829 814 816 819 815 817 820 818 819 822 824 827 829 831 832 831 830 832 834 835 836 837 837 838 839 840 840 841 842 842 843 843 843 844 843 843 843 842 842 842 841 841 840 839 838 837 835 834 833 831 831 829 827 827 826 826 826 825 824 823 822 821 820 818 817 815 814
792 795 797 801 808 811 814 824 832 825 810 800 798 793 789 800 819 828 822 812 812 818 817 815 819 819 818 821 823 825 827 827 828 831 832 832 834 835 836 837 837 838 839 840 841 841 842 842 843 843 844 844 844 844 843 843 843 842 842 841 840 840 839 838 837 835 834 833 832 831 829 828 827 826 826 826 825 824 823 822 821 820 818 817 816 814
795 802 808 808 807 813 821 829 837 834 815 798 797 798 800 810 819 816 811 813 816 816 816 819 820 818 821 824 825 827 830 830 832 834 833 835 835 836 837 838 838 839 840 840 842 842 842 843 843 844 845 845 845 845 843 843 843 842 842 841 840 839 839 837 836 835 834 833 833 831 830 828 827 827 827 826 825 824 823 822 821 820 818 817 816 815
793 799 809 811 808 816 830 837 835 829 815 801 800 808 811 811 808 807 811 817 817 817 818 820 821 821 822 825 828 831 833 834 835 836 835 837 837 837 838 838 838 840 840 841 842 842 842 844 844 845 846 846 845 845 844 843 843 842 842 841 840 839 838 837 836 835 834 834 833 831 830 829 828 828 827 826 825 824 823 822 821 820 819 818 816 815
794 791 798 807 810 812 823 828 823 817 812 805 805 809 811 809 808 808 812 816 818 819 819 820 824 824 823 825 830 832 834 835 836 836 836 837 838 838 839 839 839 840 841 841 843 843 844 845 845 845 846 845 845 845 844 843 843 842 841 841 840 839 838 837 836 835 834 834 833 831 831 830 829 828 827 826 825 824 822 822 821 820 819 818 817 816
790 785 789 804 811 811 816 819 816 814 814 810 808 810 810 811 812 811 813 817 819 819 819 821 824 824 824 827 830 832 835 836 835 836 837 837 838 838 839 840 840 841 841 842 843 844 845 845 845 845 845 845 845 845 844 843 842 841 841 841 839 838 837 837 836 835 834 834 833 832 831 830 829 828 827 825 825 824 822 822 820 820 819 818 817 816
789 786 791 803 811 816 824 824 817 816 817 814 813 813 812 813 814 813 815 819 819 819 820 821 822 824 826 827 829 833 835 834 835 837 837 837 838 839 839 840 841 841 842 843 843 845 845 845 846 846 845 845 845 844 844 843 842 841 841 840 839 838 837 836 836 835 834 833 833 832 831 830 829 828 827 826 825 824 822 821 820 819 818 817 817 816
793 790 798 808 813 818 826 824 816 816 818 815 815 817 815 816 817 816 817 819 819 820 821 821 822 825 826 828 830 833 834 835 836 837 838 838 839 838 838 840 840 841 842 843 843 845 845 846 846 846 845 845 845 844 844 842 841 841 841 840 839 838 837 836 835 835 834 833 833 832 831 830 829 828 827 826 825 823 822 821 820 819 818 817 816 815
792 795 803 811 818 824 825 821 817 820 822 819 817 818 817 817 818 818 819 820 821 822 823 823 824 825 827 830 831 832 834 836 836 836 838 838 838 838 838 839 839 840 842 842 843 845 845 846 847 846 845 845 845 844 843 842 842 841 840 840 840 838 837 836 835 835 834 833 832 832 831 830 829 828 827 826 825 823 822 820 819 819 817 817 816 815
795 803 807 813 824 828 824 818 816 821 827 825 820 818 819 818 818 820 822 822 823 825 825 826 827 828 829 830 831 832 834 836 835 836 838 837 837 838 838 838 839 840 841 842 844 845 846 846 846 845 845 845 844 844 843 842 842 841 840 840 839 838 837 836 835 834 834 832 831 831 831 830 829 828 827 826 824 823 822 820 820 818 817 816 815 814
798 801 802 808 817 818 814 812 812 816 823 825 820 819 819 818 819 822 824 824 826 826 826 828 830 831 832 832 832 833 834 834 835 836 837 837 838 838 838 839 839 840 841 843 844 845 845 846 846 845 844 843 843 843 843 842 841 841 840 839 838 837 836 836 835 834 833 832 831 831 830 829 828 827 826 825 824 823 822 821 820 818 817 816 815 814
Wind_Speed
1 3 5 4 7 8 9 8 7 7 4 4 7 9 11 9 7 7 5 6 10 6 3 7 6 7 8 6 5 2 4 5 4 6 5 4 5 4 5 4 2 1 2 2 7 10 12 12 9 7 7 9 10 10 11 13 13 13 13 11 9 8 7 6 6 4 4 5 6 6 6 7 7 8 10 10 10 10 10 10 11 12 12 12 14 14
3 3 7 8 9 9 10 10 5 2 5 5 5 7 8 6 6 6 5 7 9 5 2 4 7 6 5 4 1 4 6 5 5 7 6 6 6 5 6 6 3 2 3 4 8 12 18 19 15 9 9 12 14 16 15 16 17 17 16 11 9 9 8 8 6 5 6 6 6 6 5 6 6 6 7 8 9 8 8 8 8 9 9 10 11 11
5 6 10 9 6 6 8 7 4 2 2 5 5 6 7 4 2 1 5 9 7 4 2 4 7 4 3 4 3 4 4 3 3 6 6 8 7 5 6 6 6 6 5 4 7 12 19 20 15 8 6 11 13 14 15 17 18 18 15 12 12 12 10 10 9 8 7 7 6 5 5 5 4 5 6 7 8 8 8 8 8 8 8 9 9 9
4 8 10 7 7 8 8 7 5 4 4 5 5 5 4 4 4 1 2 9 4 3 6 6 6 4 4 4 4 4 2 4 4 5 6 6 7 6 5 6 6 7 5 4 7 11 16 17 14 8 6 10 14 13 12 14 16 16 15 13 13 12 11 10 11 11 9 8 8 7 7 7 6 7 6 6 7 7 7 7 7 9 8 7 7 6
7 12 10 7 7 8 7 8 6 4 5 5 1 5 4 6 7 4 5 9 5 5 9 9 6 3 2 4 3 4 4 6 5 7 8 6 7 7 7 7 6 6 6 6 9 11 13 15 14 9 6 9 12 14 15 14 13 14 14 13 13 13 12 10 11 11 11 9 9 9 9 9 10 10 9 8 9 9 8 7 9 11 9 7 7 6
9 11 8 6 6 6 5 7 6 3 4 4 2 4 8 9 8 6 10 10 6 2 6 8 5 2 2 4 3 2 5 6 4 6 7 5 6 7 7 7 5 6 6 8 10 11 12 13 13 9 7 11 10 11 16 17 14 13 13 13 12 14 13 12 12 12 11 10 10 11 12 13 13 14 14 12 12 11 10 9 11 12 10 9 8 6
6 8 7 7 6 6 5 7 4 5 6 1 3 5 5 5 5 10 13 8 5 3 8 5 5 1 2 1 2 2 7 6 4 6 5 4 6 5 6 6 5 6 6 9 9 11 13 11 11 9 9 14 11 8 12 15 15 13 12 12 11 13 14 14 14 13 13 13 13 14 15 17 16 15 16 16 15 14 13 15 17 15 11 11 10 8
5 8 9 7 5 4 4 5 5 4 5 3 4 5 5 2 3 9 12 8 4 4 4 2 4 4 1 2 1 4 8 7 4 4 3 4 6 5 5 5 6 6 6 8 8 9 11 10 9 9 11 16 12 8 10 12 16 14 11 12 12 13 15 16 16 15 16 16 16 15 17 19 19 17 17 18 18 17 16 19 22 19 15 14 14 12
4 6 8 6 5 5 3 5 6 3 3 6 7 7 6 1 2 3 5 4 3 7 5 1 3 5 1 3 1 2 6 7 4 5 5 6 6 6 5 4 6 6 6 7 7 8 11 12 10 6 11 18 15 10 11 13 16 17 14 15 15 16 16 17 17 17 18 18 17 17 18 19 20 19 18 18 19 19 18 20 21 18 15 15 15 15
5 6 6 3 2 4 5 6 5 0 2 5 4 4 5 4 4 2 1 3 2 6 4 6 3 5 1 3 1 2 2 5 6 5 4 5 4 4 4 5 5 5 5 5 7 10 12 14 13 8 13 21 19 17 17 16 18 19 18 17 17 17 16 17 18 18 19 18 18 17 17 18 19 18 18 17 17 17 16 16 17 16 14 13 13 11
7 7 5 2 4 6 7 7 5 5 5 2 4 5 7 7 5 3 0 2 5 4 3 6 5 5 2 3 3 4 2 6 8 4 4 4 3 3 2 4 4 3 5 4 6 10 13 14 13 12 18 24 22 22 21 20 20 19 15 10 10 12 14 15 16 17 18 18 18 18 17 17 18 18 18 17 15 15 14 12 13 15 14 12 12 10
7 7 4 4 6 6 5 6 4 3 1 3 5 5 5 7 6 5 5 5 6 1 6 2 5 6 2 1 3 5 3 8 12 9 8 7 4 2 0 3 2 1 3 4 4 6 9 12 12 12 18 22 22 23 22 21 20 18 14 10 8 9 11 13 15 16 17 18 17 17 17 17 17 18 18 18 17 16 15 12 11 15 14 13 13 13
6 6 6 5 5 5 5 5 5 5 5 5 4 5 5 4 5 4 4 4 3 2 3 1 5 5 2 2 2 7 3 7 10 8 9 9 5 2 1 3 2 2 2 3 4 3 4 8 10 10 15 19 22 24 23 22 22 20 17 14 12 12 11 12 15 15 16 17 18 17 16 17 17 17 17 18 18 18 16 14 13 15 15 14 14 14
5 8 9 6 6 5 6 5 3 3 2 2 2 4 4 1 2 3 3 2 2 1 0 4 5 3 1 2 7 9 6 3 5 7 7 6 4 2 2 2 1 2 3 2 2 2 3 4 5 8 13 18 21 23 22 21 21 20 18 15 14 14 12 12 13 14 15 16 17 18 17 17 18 17 18 17 17 17 16 15 16 16 16 15 15 14
3 6 7 5 4 4 6 8 6 4 2 2 4 6 4 3 3 2 2 3 3 2 3 6 4 1 1 3 7 8 8 9 9 8 7 5 3 3 3 3 3 4 4 4 4 3 5 5 3 5 11 17 22 22 21 20 19 18 16 15 14 13 13 13 13 14 15 15 16 18 17 18 19 18 18 18 17 16 15 15 15 15 15 15 15 15
4 6 9 7 6 6 8 8 6 5 1 3 3 6 1 4 5 2 2 4 5 4 4 4 2 0 2 4 6 7 8 9 9 7 6 6 4 4 4 4 4 4 4 4 4 3 5 5 4 4 9 17 20 19 18 17 16 15 14 13 13 13 13 14 14 14 15 15 16 18 18 18 19 19 18 18 17 16 15 15 16 16 15 15 15 15
3 6 8 6 6 10 11 8 6 6 2 1 3 3 4 5 8 4 2 3 6 6 2 2 1 3 1 2 4 7 8 8 7 6 5 5 5 5 4 3 3 3 3 4 3 2 3 3 3 4 9 16 17 16 16 15 13 13 12 11 12 12 13 15 15 14 15 15 16 18 18 18 19 19 18 18 17 16 16 16 16 16 15 15 15 16
4 5 9 8 9 9 7 8 6 5 5 4 2 5 2 2 4 4 3 2 5 4 1 1 1 1 2 1 2 5 7 6 5 5 4 4 4 4 3 2 1 3 3 3 2 2 2 2 1 2 10 13 13 13 13 11 9 9 9 10 12 14 15 16 16 15 15 16 16 17 18 18 19 18 18 18 17 15 16 17 16 15 15 15 16 17
5 4 9 7 6 2 4 6 3 4 0 4 4 3 3 2 2 2 2 1 3 3 1 2 1 0 0 1 4 5 3 4 3 3 3 3 2 2 1 2 1 3 3 2 2 2 3 3 4 2 9 11 11 11 10 8 7 6 5 7 11 14 16 16 16 16 15 16 17 18 18 18 18 18 18 18 17 16 18 18 16 15 16 16 16 17
4 2 5 7 4 2 3 2 1 5 6 1 1 2 2 3 2 2 2 2 5 4 1 0 1 1 2 3 2 3 2 6 5 3 3 2 1 1 1 1 1 1 2 2 3 3 3 4 6 11 16 15 15 14 13 13 12 11 10 10 12 13 16 17 18 17 16 17 18 18 19 19 18 18 19 18 17 18 19 19 17 16 16 16 15 16
2 2 2 7 7 2 1 0 5 4 2 3 4 4 3 2 2 3 3 2 4 5 3 2 0 3 3 1 1 1 1 5 7 5 4 3 2 2 2 3 2 2 3 4 5 4 6 10 13 15 16 15 16 16 15 15 15 16 16 15 14 14 16 17 18 18 16 16 18 19 19 18 19 20 19 19 19 20 20 19 18 17 16 16 15 15
3 3 3 3 5 1 4 4 5 8 7 5 4 1 1 2 3 5 3 3 2 5 4 4 2 4 3 1 2 2 2 4 6 6 5 3 2 1 2 2 0 3 6 7 7 6 8 11 12 13 14 15 16 16 16 15 15 16 16 15 14 15 16 17 18 18 17 17 17 18 18 19 20 20 19 20 20 20 20 19 18 18 17 16 15 15
4 4 2 3 3 4 7 6 2 5 8 7 5 3 3 3 4 6 3 2 2 4 2 4 3 3 3 1 3 4 4 4 5 6 5 3 1 1 1 1 3 5 7 7 6 7 10 12 13 13 13 14 15 15 14 14 14 15 14 14 15 16 17 18 17 17 17 17 17 18 18 19 19 19 19 20 20 20 19 19 19 18 18 17 16 15
2 3 2 3 4 3 4 5 5 4 6 7 6 6 6 5 5 6 5 4 3 3 1 4 2 3 3 1 4 5 5 5 5 5 6 4 2 2 3 4 5 6 7 6 6 8 11 13 13 10 8 11 13 13 12 13 13 14 14 15 16 16 17 17 17 17 17 17 17 18 19 20 20 20 21 21 21 19 18 18 18 18 18 18 17 16
1 1 3 2 4 6 6 7 7 6 4 5 6 8 9 9 9 6 3 4 3 1 2 4 1 4 2 1 4 5 5 6 5 4 5 5 4 4 4 4 4 5 6 6 6 6 8 11 10 6 7 10 11 10 12 13 13 14 15 15 16 16 16 16 16 16 16 17 18 19 21 21 21 22 21 21 21 20 19 18 18 18 18 19 18 17
2 2 4 5 2 1 1 1 2 2 2 3 6 8 9 9 10 6 3 5 3 0 2 4 3 3 1 2 4 5 5 6 5 4 3 3 4 5 4 3 4 4 5 6 6 5 6 8 5 3 7 11 11 11 13 13 13 14 15 15 15 15 15 16 15 16 17 18 19 21 21 21 21 21 21 21 21 21 20 19 19 18 18 18 18 18
3 1 3 6 6 6 6 6 5 2 5 5 7 9 8 8 10 8 5 4 4 3 2 2 5 4 2 3 4 4 5 5 4 4 3 3 4 5 5 4 4 4 4 4 5 4 5 6 5 5 9 11 12 14 14 14 15 15 16 16 15 15 16 15 15 16 18 19 20 21 21 20 20 20 21 21 20 20 20 19 19 19 18 18 18 18
5 2 1 5 5 4 4 1 3 7 9 9 10 9 7 8 10 9 6 6 7 5 1 4 6 8 6 6 6 5 5 5 4 4 4 3 3 3 3 5 5 4 4 4 4 4 4 3 4 8 10 11 13 15 15 15 16 16 16 16 15 15 16 15 16 18 18 19 20 20 20 20 20 20 20 20 20 20 20 20 19 19 19 18 18 19
6 0 1 3 4 4 5 9 13 13 10 10 11 11 9 9 12 11 9 10 8 4 3 7 8 7 6 6 7 7 5 5 5 4 4 5 4 2 3 5 5 3 3 3 4 4 4 4 6 9 11 13 15 15 16 17 16 16 16 15 15 16 15 15 17 18 18 19 19 19 19 19 19 20 20 20 21 21 21 20 20 20 20 20 19 19
5 1 1 3 6 9 10 11 15 15 12 10 10 9 9 10 11 11 8 7 5 5 6 10 9 5 2 4 5 5 4 4 4 4 4 5 5 3 3 5 4 3 2 3 3 4 4 6 8 11 13 14 16 16 16 16 16 15 15 15 15 15 15 15 17 17 16 18 18 17 17 18 18 19 19 19 20 21 21 21 21 21 20 20 20 19
4 2 2 4 5 6 9 13 14 15 15 11 8 8 11 12 11 11 9 8 8 6 6 10 9 3 1 2 4 4 4 5 5 5 4 4 5 5 4 5 4 2 2 3 4 5 5 7 10 12 13 14 15 15 15 15 15 14 14 14 15 15 15 16 17 17 15 16 17 17 17 17 18 20 20 18 18 19 20 20 20 20 20 20 20 20
4 1 1 6 5 3 6 13 13 13 15 13 9 6 9 10 8 7 6 5 6 8 8 8 6 4 3 3 4 4 5 5 5 5 4 4 5 5 5 5 5 4 4 5 6 6 6 7 10 12 12 13 14 14 13 13 14 14 14 14 15 15 15 16 17 17 16 16 17 17 18 17 18 19 20 18 18 19 19 19 20 19 19 19 20 20
4 3 1 4 4 1 4 11 9 8 9 6 4 1 6 9 9 7 5 3 6 9 8 5 4 5 5 5 5 5 5 5 6 6 5 5 5 5 6 7 6 6 6 6 6 7 7 9 11 12 12 13 12 12 12 12 13 14 13 14 14 14 15 16 16 16 17 17 17 17 18 18 18 19 20 18 19 19 19 19 19 19 19 20 20 20
4 5 2 3 4 2 4 6 6 7 4 2 5 2 8 10 11 9 6 5 5 4 4 4 4 6 7 6 7 7 6 5 5 5 5 6 7 6 7 7 6 6 6 6 6 8 9 11 12 12 12 12 12 12 12 12 13 13 12 13 15 15 14 15 15 16 16 16 16 17 17 17 18 19 19 19 19 19 19 19 19 19 20 20 21 22
4 5 2 2 4 2 2 4 6 4 0 2 2 6 10 12 14 13 9 6 5 5 7 8 7 7 8 6 6 7 6 5 5 5 5 5 6 7 7 6 5 6 7 7 7 9 11 13 12 13 13 12 12 12 13 13 12 12 12 14 16 15 14 14 15 16 16 15 15 16 17 16 17 18 18 19 19 18 18 19 19 19 19 19 19 20
6 4 3 3 3 1 3 5 4 2 1 4 7 8 9 11 12 12 8 5 4 5 7 7 5 6 6 5 5 5 5 4 2 2 3 5 6 6 6 5 5 6 7 7 9 11 12 12 13 14 14 13 13 13 13 13 12 12 12 14 16 14 14 14 15 15 15 15 16 17 16 15 16 17 17 17 17 17 17 18 19 19 19 19 19 18
7 5 3 3 3 3 3 3 4 4 4 4 4 4 4 5 6 7 6 2 3 2 5 7 6 5 5 5 5 5 6 6 5 5 3 2 6 8 8 8 8 8 8 10 13 13 13 13 14 15 14 14 14 13 12 12 11 10 11 14 15 13 13 13 13 14 15 15 16 16 14 14 15 15 16 16 15 16 16 17 18 18 18 19 19 18
7 5 4 3 3 3 5 4 4 3 2 3 5 5 2 7 8 8 7 1 4 2 4 7 8 6 5 5 5 5 6 7 5 3 5 6 10 12 13 13 14 13 12 13 14 14 15 16 15 15 15 14 13 11 10 10 10 10 11 13 13 11 11 12 12 13 14 15 17 16 13 13 13 13 14 14 14 15 15 16 17 16 16 16 17 18
12 5 4 6 3 3 5 5 2 2 2 5 6 5 4 10 10 8 6 1 4 1 4 7 7 6 6 5 4 5 5 5 4 2 3 7 11 12 12 13 14 15 15 15 14 15 17 17 15 14 14 13 12 9 9 9 9 10 10 11 11 10 10 12 12 12 15 17 18 14 11 11 12 11 12 13 12 13 13 14 14 14 15 15 15 16
9 6 5 6 3 3 5 4 2 2 1 4 4 2 4 8 6 7 3 3 4 3 4 7 8 6 5 5 4 4 4 4 5 5 5 9 12 13 13 13 14 16 18 19 18 18 19 17 15 14 12 11 10 9 8 8 8 8 8 9 9 10 11 11 11 13 16 17 14 11 10 11 11 9 10 12 12 12 12 13 13 14 16 16 15 15
5 5 4 4 4 4 5 4 1 1 1 3 4 3 3 3 4 5 3 5 3 4 3 4 6 5 4 5 4 3 3 5 7 7 7 11 12 13 15 16 17 18 19 20 20 20 19 17 15 13 11 10 8 7 8 7 7 8 8 8 7 7 9 11 11 14 16 13 10 11 12 12 9 8 9 11 12 12 12 12 13 14 15 16 16 16
2 3 3 3 3 3 4 4 1 1 3 5 4 4 4 3 2 2 4 3 6 6 5 6 5 4 4 5 5 6 6 9 10 8 8 9 10 11 14 16 18 19 18 18 18 17 17 16 14 12 10 9 7 6 6 5 5 7 8 6 5 5 7 9 12 15 14 10 9 12 14 12 8 8 9 11 12 12 12 11 12 13 14 15 15 16
2 2 2 1 2 2 3 4 2 2 5 8 5 3 6 2 5 4 4 7 7 7 8 8 6 5 7 8 9 10 11 10 10 9 8 8 9 11 14 15 16 17 17 17 15 13 13 12 11 10 9 7 5 5 4 2 2 6 6 4 4 7 8 8 11 14 13 10 9 12 15 13 10 8 8 9 10 10 9 10 10 11 12 13 14 14
1 2 2 1 0 2 3 2 1 3 5 7 3 3 3 2 4 6 7 6 5 6 7 7 6 7 9 11 11 11 10 9 8 8 8 8 8 11 13 15 16 16 16 16 14 11 10 10 9 8 7 4 3 3 2 1 3 4 4 3 3 7 8 7 9 12 11 10 10 12 14 14 12 10 8 7 7 7 7 8 8 9 11 12 12 12
0 4 6 3 3 4 4 3 3 2 4 8 8 7 7 8 7 8 9 7 5 5 5 6 7 8 10 12 11 10 9 8 7 7 7 6 7 9 11 14 16 16 14 14 12 11 10 9 9 8 6 2 1 2 3 5 5 4 3 4 5 6 7 6 8 10 9 9 11 12 13 12 12 12 10 7 5 6 6 7 7 8 9 10 10 10
2 6 7 6 6 8 7 4 5 6 7 9 9 8 10 9 7 8 10 7 5 5 5 6 7 7 9 11 10 8 8 8 7 7 7 6 6 9 12 14 14 15 14 13 11 10 10 10 8 7 5 3 1 4 5 6 3 4 2 5 5 4 5 6 8 9 8 9 11 11 11 11 12 13 12 8 7 8 9 9 8 7 7 8 9 9
2 3 5 5 5 6 5 3 6 8 7 8 9 9 9 9 7 7 8 6 6 7 6 7 8 8 8 10 10 9 8 7 8 7 6 6 6 8 11 14 14 14 15 13 10 10 11 10 7 5 4 2 2 6 8 7 3 2 2 4 4 4 5 7 8 9 9 10 10 9 9 8 11 13 12 10 11 13 12 11 9 8 6 7 7 7
1 3 5 5 4 5 4 5 7 8 6 6 7 7 7 8 7 7 7 7 7 7 7 8 9 7 7 8 9 10 7 6 8 7 5 5 6 7 11 14 15 14 15 14 12 11 10 9 7 5 4 3 3 8 11 9 6 3 2 3 4 5 6 7 9 10 11 11 8 8 8 6 8 10 11 12 14 15 12 10 9 8 7 7 7 5
1 3 4 6 6 6 5 7 8 9 7 6 6 6 6 6 7 8 8 8 8 7 7 8 9 9 9 9 9 9 7 6 7 8 6 5 6 6 8 12 16 17 16 15 13 11 10 9 7 6 6 5 5 8 10 10 7 4 2 3 5 5 6 7 7 8 11 11 7 6 7 7 7 8 11 13 13 12 9 8 8 7 7 7 6 5
3 5 5 8 7 5 5 6 8 8 5 3 5 6 6 7 9 9 9 8 8 8 7 9 11 12 13 13 12 10 7 5 7 8 7 6 6 6 6 9 15 18 18 16 13 10 8 9 7 6 7 6 6 8 8 8 7 4 3 3 4 4 5 6 5 7 10 10 7 5 7 8 6 8 10 10 9 8 8 9 8 7 7 7 6 5
3 6 7 7 5 4 6 7 7 7 5 3 4 6 6 7 9 9 8 8 7 7 8 9 10 10 9 10 12 11 8 6 9 11 9 7 7 8 7 8 12 18 18 16 13 11 9 9 7 5 6 6 6 7 7 6 6 4 3 3 4 4 5 6 6 8 9 9 7 6 7 7 6 7 8 8 7 7 9 10 10 8 8 8 7 6
Wind_Direction
340 310 303 265 255 265 274 257 220 232 271 35 92 141 166 178 207 205 182 155 137 124 195 170 145 153 166 188 195 137 98 115 109 109 123 115 96 105 125 128 153 244 292 46 76 84 88 87 80 60 49 37 20 5 354 355 2 2 357 357 360 357 357 356 353 355 2 2 351 349 339 326 323 308 298 304 309 305 303 305 307 306 304 304 301 298
22 321 269 251 247 250 266 272 257 288 340 15 82 138 171 189 211 205 148 139 137 118 222 165 127 147 162 162 154 77 93 105 110 113 106 99 94 93 102 100 95 58 21 46 62 80 86 80 73 60 50 44 23 8 5 3 1 4 6 13 21 19 17 19 20 23 30 23 0 349 344 335 326 319 315 317 322 320 315 321 326 319 311 309 307 303
349 287 262 264 278 276 273 286 322 2 12 8 35 124 170 201 212 298 99 131 144 114 149 152 129 123 92 103 67 65 112 106 102 121 113 109 102 92 93 89 87 79 59 56 64 73 76 77 86 94 85 76 55 27 15 6 358 4 19 32 32 30 36 40 39 39 40 33 19 10 13 14 8 2 349 331 331 334 337 342 340 335 325 317 314 306
307 273 273 295 314 309 298 306 348 35 47 13 25 104 175 189 148 269 125 132 124 99 135 131 111 81 49 78 53 22 86 78 65 85 85 98 107 105 99 91 95 96 94 86 75 72 73 79 87 87 70 73 74 62 39 21 15 19 26 30 30 33 41 46 45 43 41 38 36 40 47 50 42 28 11 357 360 356 358 4 355 352 345 333 333 326
265 268 279 297 299 305 313 314 330 39 30 336 4 109 159 190 181 192 144 125 69 53 125 114 76 26 29 90 70 352 49 69 51 62 62 61 91 99 90 90 104 112 117 100 86 89 90 90 87 79 61 53 62 77 77 65 49 37 29 25 29 34 34 38 46 44 41 43 44 50 55 49 42 40 33 26 28 25 24 22 7 9 14 3 349 347
264 266 280 300 302 311 317 298 294 101 70 337 304 175 170 184 197 158 127 122 79 35 172 132 94 303 326 90 120 353 53 64 39 60 70 66 79 89 90 97 106 107 103 91 91 100 104 103 99 88 74 70 62 67 83 88 78 54 34 26 33 44 42 38 43 46 47 52 52 54 54 47 42 39 36 32 30 28 27 22 17 22 25 7 346 337
266 282 306 308 296 300 312 297 286 111 104 354 272 234 187 151 145 137 138 140 116 181 205 157 107 182 297 99 165 99 81 75 56 68 78 92 95 93 97 97 92 87 82 83 87 91 97 105 107 100 87 85 77 51 71 87 84 67 41 31 41 54 56 54 55 56 58 61 61 60 55 51 48 43 41 41 39 32 27 30 36 37 25 9 356 335
279 304 313 307 302 303 311 288 276 93 96 260 253 256 274 3 98 142 152 168 163 142 157 123 92 113 200 261 177 113 105 92 81 90 101 125 122 107 100 98 96 98 94 93 92 89 95 99 103 114 107 99 93 71 68 70 75 74 50 40 52 61 63 64 65 66 65 65 66 65 59 53 50 46 43 43 41 34 27 34 43 41 26 18 19 13
263 277 280 283 313 313 281 264 277 50 75 252 242 251 275 338 121 157 154 182 164 108 112 219 89 94 286 290 41 124 123 120 145 166 161 154 140 119 119 125 111 105 103 105 109 106 107 110 117 131 113 108 109 95 79 67 70 75 62 54 63 70 71 69 69 68 66 64 65 65 61 56 52 50 48 45 41 35 28 29 37 36 22 15 18 20
254 254 263 247 274 273 257 264 272 309 250 254 250 281 323 31 73 93 178 213 113 90 145 206 153 100 268 274 188 187 170 158 182 199 175 153 141 144 150 135 114 105 104 103 107 109 110 116 129 141 116 113 113 101 92 82 75 73 66 56 55 62 68 70 69 66 63 60 60 59 59 56 51 47 46 45 42 38 31 29 33 33 23 16 13 6
265 278 294 250 242 249 252 263 240 205 231 295 33 17 1 357 4 41 110 126 76 40 260 205 155 118 163 245 203 205 216 158 165 192 179 152 151 183 176 110 103 112 118 112 107 111 111 112 125 134 122 117 117 110 102 95 88 85 84 74 59 60 63 64 65 65 64 61 59 60 59 56 49 44 42 42 40 33 27 30 35 31 27 28 25 14
291 297 289 242 249 254 257 277 279 258 292 60 59 42 18 341 346 7 358 49 80 300 270 209 108 90 97 211 226 258 261 154 163 179 171 160 173 211 145 82 75 43 93 99 96 107 113 115 125 135 124 119 118 114 110 108 110 114 122 127 111 87 73 69 67 67 66 61 60 60 58 56 50 46 43 39 36 29 27 34 33 27 27 29 26 22
302 279 274 275 271 256 246 275 310 334 10 63 64 52 43 343 349 355 339 40 76 218 250 13 64 67 95 129 341 314 296 164 167 165 153 154 171 209 51 70 57 359 46 85 96 107 116 122 133 134 121 117 115 113 113 114 117 120 119 116 103 88 78 74 69 66 64 61 59 57 57 57 51 47 46 39 34 34 37 38 31 26 27 24 22 22
302 296 294 291 289 258 220 234 290 311 340 91 109 97 95 35 1 321 309 57 64 158 65 7 39 51 283 4 9 2 17 85 108 104 115 130 147 156 67 74 63 9 25 48 74 91 73 88 123 123 113 114 113 112 113 114 114 114 110 105 96 83 76 73 66 59 58 60 56 52 51 50 46 46 46 39 35 37 38 34 29 26 23 19 19 22
234 294 280 237 252 248 213 211 196 183 184 185 159 127 130 164 155 239 237 130 135 136 11 2 37 55 278 21 24 28 39 49 67 77 84 88 91 88 62 49 39 20 15 23 24 43 42 31 48 91 104 110 111 110 112 113 113 113 110 107 98 87 79 70 61 54 53 57 53 47 44 40 39 41 40 38 35 34 33 30 27 22 18 18 19 19
192 248 250 232 224 208 210 217 183 125 62 262 128 95 104 190 151 154 172 138 130 109 20 0 39 342 150 96 61 62 58 54 64 64 68 71 53 59 57 32 34 26 14 30 31 34 45 40 38 64 102 111 112 113 115 117 118 118 116 112 101 91 79 64 57 53 49 51 47 41 39 35 33 33 34 35 33 30 31 30 27 22 18 17 15 14
183 248 264 274 249 216 205 203 175 137 152 269 97 128 233 177 134 118 108 87 88 100 52 24 72 330 4 96 64 71 69 57 57 51 52 49 35 48 48 22 35 46 39 45 38 16 41 62 53 71 111 119 120 123 124 124 123 118 116 114 103 90 75 60 56 52 45 44 43 38 36 31 27 28 31 31 30 30 29 26 22 19 18 16 11 7
193 266 285 278 259 239 197 180 190 177 149 122 140 200 230 65 98 108 113 52 52 85 36 29 122 317 344 338 355 43 67 63 57 57 51 32 33 40 22 357 39 82 84 70 59 33 39 42 348 106 125 127 127 129 129 128 124 117 113 112 102 85 69 59 53 49 44 42 40 35 31 26 24 27 30 29 29 30 27 21 16 14 17 17 9 3
177 255 290 275 256 239 127 151 214 300 11 147 180 181 102 60 318 23 83 110 79 92 357 345 67 60 143 239 324 353 65 107 95 90 80 44 44 48 354 326 12 75 88 74 55 26 12 335 309 75 105 103 101 105 104 102 101 104 109 112 103 81 62 53 46 41 41 37 34 29 23 20 21 23 24 25 26 25 21 17 15 13 14 11 5 1
161 189 288 298 313 84 87 91 182 311 327 6 39 18 68 131 165 109 82 127 121 121 167 325 2 291 226 223 292 313 205 149 139 133 128 144 181 202 215 241 298 97 109 82 60 23 31 64 72 85 91 90 87 84 79 74 72 74 81 94 97 75 53 45 36 31 31 30 27 22 18 17 17 16 17 21 22 20 17 14 13 11 8 6 4 1
118 134 243 300 327 48 124 161 163 161 38 45 49 13 350 19 85 94 54 45 114 129 155 137 99 263 250 217 130 289 202 157 152 152 153 169 193 217 213 216 218 149 115 88 79 68 72 83 83 86 91 89 83 76 72 70 67 71 78 79 74 60 45 36 29 24 25 24 21 19 19 18 14 12 15 19 17 14 12 10 9 8 5 3 3 2
148 156 186 291 337 334 254 256 183 152 129 124 112 70 183 128 91 80 40 336 64 111 150 146 154 256 267 74 100 109 131 147 146 143 143 152 174 219 247 250 186 94 87 81 84 85 78 72 68 68 70 71 72 69 68 66 65 71 74 67 59 51 41 31 26 23 22 22 21 21 20 16 13 14 17 17 14 11 10 8 6 4 3 2 2 3
167 135 127 275 258 227 253 282 275 138 122 111 87 80 128 125 104 110 136 243 67 85 120 114 114 253 261 125 122 127 131 131 127 127 126 121 157 208 256 57 80 81 81 84 91 90 81 72 65 61 61 66 71 72 69 67 66 68 65 57 50 43 35 30 25 22 22 24 25 23 20 18 18 19 18 16 13 10 9 7 3 1 360 360 1 2
193 117 99 297 300 288 287 322 351 38 81 76 59 68 81 74 79 112 145 157 97 69 79 82 63 261 252 160 131 135 128 117 112 115 120 131 160 155 121 105 96 87 88 90 86 80 78 75 70 66 68 70 73 73 70 69 69 64 56 49 42 37 31 26 23 23 24 27 26 22 20 20 17 15 15 14 11 8 7 6 4 2 2 3 4 5
239 135 95 47 357 346 342 353 359 2 34 73 80 86 95 100 98 90 83 88 71 8 107 110 185 249 250 87 115 127 118 106 105 114 129 144 146 124 112 109 100 97 102 97 84 75 74 73 69 67 69 67 68 70 69 72 70 60 52 45 39 35 31 27 26 27 29 29 26 21 18 16 12 11 14 13 11 10 10 9 8 7 7 6 7 9
122 142 105 108 117 78 41 329 301 329 11 66 92 99 105 113 116 111 73 76 87 303 98 121 191 234 293 82 111 121 115 104 100 114 128 122 114 116 119 117 108 105 107 104 103 100 89 89 99 96 73 69 72 76 75 73 66 56 50 44 40 37 34 33 32 32 32 29 26 22 20 17 14 15 15 12 11 13 13 14 13 11 11 10 10 12
86 83 109 132 158 176 188 219 231 118 90 94 96 92 92 101 111 111 93 102 144 139 75 192 178 153 172 176 149 141 138 131 129 136 133 99 103 124 134 128 119 108 107 111 115 114 109 123 138 103 76 74 76 75 72 67 58 51 47 44 42 39 37 37 35 34 34 30 27 25 22 20 18 16 14 13 14 17 16 17 17 15 15 15 15 17
82 24 48 124 150 194 202 178 70 77 92 107 103 93 92 101 105 101 109 147 146 110 13 236 165 145 182 189 164 166 166 152 155 161 157 133 122 136 136 130 128 122 120 121 118 114 111 109 98 84 78 76 74 69 64 59 52 46 45 45 44 41 41 41 38 37 37 34 30 25 21 20 18 15 15 17 19 20 19 18 18 18 20 21 22 22
103 85 268 102 82 57 60 77 86 88 92 99 106 111 114 113 112 110 129 156 151 125 179 188 159 151 177 173 164 179 178 157 161 165 146 134 137 143 127 124 122 111 109 114 108 104 93 71 74 84 80 73 68 63 58 52 46 44 47 48 45 44 44 40 37 37 38 34 28 23 21 21 19 17 19 22 23 21 19 19 18 20 24 27 28 28
110 174 231 102 67 55 66 83 90 93 96 94 101 112 111 105 105 107 122 136 113 105 150 151 138 130 157 155 155 166 151 129 141 148 133 137 155 168 146 126 116 95 94 114 102 88 86 82 84 85 77 70 67 62 55 50 46 49 53 50 46 46 43 38 36 37 37 34 28 22 21 21 20 20 20 23 23 21 20 20 19 22 27 31 33 33
92 216 229 96 62 43 74 89 86 87 91 84 73 85 95 93 88 91 103 102 84 87 120 123 120 121 269 159 128 124 122 115 127 148 151 158 170 170 149 128 130 139 118 111 99 89 88 85 82 79 74 70 67 60 54 50 51 55 56 51 49 48 43 37 36 35 31 28 25 22 21 20 20 19 19 22 23 22 22 21 20 25 30 33 36 38
94 199 315 70 61 10 93 103 97 89 85 72 46 55 86 93 95 98 110 124 125 126 119 112 128 175 215 175 137 137 143 137 149 166 171 184 184 166 150 144 153 163 132 112 104 97 90 85 84 82 79 76 69 60 54 52 54 57 56 53 51 48 41 34 33 32 25 20 19 19 20 19 18 16 17 22 25 25 26 24 25 31 33 35 38 40
116 121 91 88 88 279 149 129 117 83 73 55 345 350 101 97 99 94 78 97 130 134 137 156 185 173 162 158 151 157 169 170 177 183 176 177 176 162 154 150 152 151 132 118 113 105 99 100 100 97 92 83 71 61 55 55 59 59 57 53 45 38 34 30 29 27 24 19 16 17 18 18 17 16 18 25 29 30 31 30 32 36 36 38 41 41
84 95 111 109 112 238 229 147 99 56 57 277 278 165 117 104 103 98 82 88 107 114 128 136 132 135 147 162 163 168 186 191 186 188 176 165 166 164 156 150 146 138 123 117 119 117 115 114 110 105 97 83 70 63 59 60 61 57 52 44 34 29 30 28 26 24 20 16 15 16 16 16 17 18 22 31 34 34 36 37 39 41 40 41 42 40
95 95 98 84 112 189 298 51 63 44 248 245 14 77 97 99 99 92 69 61 82 92 103 108 118 142 157 172 174 173 193 203 183 180 182 173 163 150 145 146 138 125 123 125 127 127 127 125 118 107 94 79 68 61 58 55 50 46 45 39 30 29 31 27 23 21 16 11 10 11 12 16 19 21 28 36 37 38 42 44 44 44 43 44 43 39
123 122 112 69 87 97 17 44 87 144 146 80 74 85 93 95 100 94 66 31 48 100 121 124 138 160 158 165 176 169 179 189 163 164 206 197 173 148 141 146 133 124 131 135 134 136 135 129 116 101 86 72 63 56 51 46 38 37 43 36 28 31 31 22 18 15 10 6 6 6 9 16 19 25 35 40 40 45 50 49 46 44 42 44 43 40
126 126 105 57 62 92 76 63 85 101 101 94 109 154 149 136 142 126 104 31 351 60 133 136 140 155 152 147 153 140 119 100 69 27 6 142 142 128 115 108 103 107 116 123 132 138 132 118 105 92 80 70 62 55 50 43 34 36 42 32 26 30 25 15 10 7 2 1 3 4 9 15 19 29 42 43 44 53 58 53 47 45 44 43 41 39
78 109 132 109 81 90 100 93 70 79 142 230 262 268 178 139 144 126 111 88 321 2 129 142 142 147 140 130 134 125 98 85 81 41 29 76 102 103 97 91 90 93 102 116 128 127 115 109 99 84 76 72 64 55 50 43 36 39 38 25 19 22 15 6 2 360 358 357 357 1 9 12 14 31 46 44 50 62 62 53 49 48 47 45 42 39
49 54 85 90 79 74 99 116 135 140 200 250 288 323 87 128 131 103 82 335 277 268 128 136 143 148 146 139 128 114 98 93 116 124 65 81 93 96 98 95 89 88 93 103 117 117 110 106 97 82 75 71 62 52 50 49 41 36 28 15 14 18 9 0 356 357 358 356 355 1 11 9 9 32 51 50 57 65 58 51 50 50 48 47 43 40
47 35 44 68 74 80 97 109 146 146 199 271 295 312 163 157 125 77 62 258 238 191 147 144 151 155 144 129 104 103 128 141 144 145 116 103 99 98 104 103 94 92 94 95 104 113 114 108 98 90 82 73 64 54 49 49 39 26 12 4 15 22 11 359 354 356 1 4 8 16 19 14 16 40 58 57 59 59 51 48 50 49 49 49 46 42
39 38 57 84 77 77 98 105 129 195 243 289 295 285 215 167 81 76 205 225 172 136 132 131 142 145 132 125 112 110 139 133 128 129 114 105 103 101 104 100 92 94 99 100 103 110 114 111 105 101 94 83 72 55 44 40 25 13 7 7 16 19 8 2 1 4 10 20 30 24 16 20 38 66 69 61 58 53 46 46 50 51 52 50 46 43
36 26 24 69 77 79 99 88 77 246 311 322 306 331 28 78 128 197 204 143 105 109 98 85 92 98 102 104 97 95 100 102 106 109 99 97 101 103 102 97 90 91 100 106 106 108 111 112 105 97 93 85 69 48 43 43 17 7 16 33 39 11 356 3 6 7 17 32 31 19 19 31 61 87 77 62 56 50 44 45 50 52 53 48 44 42
112 82 33 58 79 74 68 55 85 214 304 323 315 347 22 68 180 178 107 91 96 101 91 79 72 79 89 88 87 94 99 98 98 100 95 94 100 103 103 101 95 92 98 107 110 108 106 105 97 90 92 88 56 33 39 59 354 356 16 52 51 13 6 13 7 6 22 42 30 23 32 44 63 79 76 61 52 45 39 40 46 50 49 44 40 40
72 126 150 189 51 96 105 83 140 210 306 346 41 96 40 55 126 116 101 99 95 89 86 80 72 77 89 95 97 99 99 100 103 105 102 100 103 107 108 107 105 102 104 109 115 112 105 107 107 104 106 98 36 16 14 326 294 322 357 20 15 12 19 21 8 13 37 49 32 31 46 57 61 60 58 53 46 36 25 25 34 43 44 40 37 38
37 126 118 94 62 88 114 138 152 136 34 41 69 89 77 65 69 88 99 99 89 87 93 91 86 85 92 100 104 103 105 110 114 114 112 110 111 117 120 119 118 119 118 116 116 116 117 124 132 133 133 136 322 326 350 350 312 286 327 357 357 13 22 14 16 35 52 44 34 43 57 60 50 37 32 34 36 26 11 4 11 29 37 33 32 37
113 112 103 96 93 84 76 85 107 91 70 67 71 75 78 75 69 78 87 87 89 97 99 99 102 102 102 105 107 109 117 124 119 113 114 115 115 116 120 128 135 134 129 122 117 123 132 138 143 149 150 149 313 330 360 10 335 260 300 359 4 21 24 19 36 55 53 37 39 53 60 50 30 20 20 26 31 25 10 357 353 6 22 23 24 38
355 59 82 99 109 97 86 103 105 95 90 87 81 75 76 75 71 76 85 94 101 100 97 99 101 102 105 112 117 120 127 128 119 115 116 121 129 126 126 139 151 144 134 134 136 140 145 145 140 136 136 130 24 2 10 14 350 278 313 1 18 41 36 36 56 63 48 37 43 55 58 42 19 18 25 28 26 23 19 10 358 348 353 5 13 35
343 59 81 89 78 79 113 137 112 94 90 92 92 91 88 83 77 76 85 96 97 93 93 92 91 97 106 111 116 122 127 123 121 127 132 136 149 145 135 147 159 150 141 149 156 154 156 156 141 118 104 100 41 10 11 13 7 349 350 20 36 47 50 59 71 62 43 35 39 50 51 30 5 13 21 18 18 23 27 27 17 357 347 353 358 19
132 83 98 110 95 84 105 125 109 88 73 75 92 99 101 100 90 79 79 84 84 82 79 71 74 94 110 111 111 115 118 124 132 135 135 143 151 136 125 150 165 160 154 160 161 155 162 167 147 109 90 77 33 12 18 28 33 31 31 38 39 45 59 71 72 53 34 29 34 41 31 8 345 350 2 12 24 31 31 29 27 21 13 7 356 352
89 106 115 118 122 140 165 155 130 110 101 112 112 106 108 109 97 85 83 85 84 86 85 75 74 88 101 108 111 113 116 134 142 136 132 147 154 133 116 145 163 165 163 161 157 154 165 168 148 110 87 65 33 20 24 37 47 46 39 43 44 46 58 61 50 29 20 21 31 34 14 360 344 345 6 29 41 33 25 32 38 39 35 25 6 345
141 158 154 134 137 170 175 163 135 113 121 147 117 101 103 104 99 96 98 96 91 93 97 96 93 92 91 97 109 120 134 144 135 131 137 146 138 128 119 127 151 165 166 160 156 162 164 160 151 117 86 65 35 20 21 31 42 43 48 57 55 50 54 45 21 6 8 18 37 41 19 5 356 358 21 52 52 24 26 38 42 43 41 30 16 1